Waarnemingen

Advertentie
Mijn weer
Bournemouth Airport, Groot Brittannië (3862): temperatuur & dauwpunt: 14.10.2017 07:00:00 - 20.10.2017 07:00:00 (BST)Bournemouth Airport, Groot Brittannië (3862): temperatuur -20cm & temperatuur -100cm: 14.10.2017 07:00:00 - 20.10.2017 07:00:00 (BST)Bournemouth Airport, Groot Brittannië (3862): windsnelheid & windstoten: 14.10.2017 07:00:00 - 20.10.2017 07:00:00 (BST)Bournemouth Airport, Groot Brittannië (3862): windrichting: 14.10.2017 07:00:00 - 20.10.2017 07:00:00 (BST)Bournemouth Airport, Groot Brittannië (3862): luchtdruk: 14.10.2017 07:00:00 - 20.10.2017 07:00:00 (BST)Bournemouth Airport, Groot Brittannië (3862): zicht: 14.10.2017 07:00:00 - 20.10.2017 07:00:00 (BST)Bournemouth Airport, Groot Brittannië (3862): Zonneschijnduur: 14.10.2017 07:00:00 - 20.10.2017 07:00:00 (BST)Bournemouth Airport, Groot Brittannië (3862): neerslag: 14.10.2017 07:00:00 - 20.10.2017 07:00:00 (BST)
Datum & Tijd tt [°C] td [°C] tt -20cm [°C] tt -100cm [°C] ff [km/u] ff [kn] fx [km/u] fx [kn] dd ppp [hPa] vv [km] sd [min] rr [mm]
20.10.2017 07:00:00 12,0 9,2 - - 28 15 50 27 W 1003,1 10 0 0,0
20.10.2017 06:00:00 12,3 9,8 - - 34 18 65 35 W 1001,7 29 0 0,0
20.10.2017 05:00:00 12,6 10,1 - - 41 22 59 32 W 999,9 30 0 0,0
20.10.2017 04:00:00 12,9 10,8 - - 37 20 61 33 WZW 998,7 23 0 0,0
20.10.2017 03:00:00 13,0 11,2 - - 37 20 59 32 WZW 998,1 20 0 0,2
20.10.2017 02:00:00 12,9 11,3 - - 31 17 54 29 ZW 997,8 12 0 0,8
20.10.2017 01:00:00 12,7 11,1 - - 29 16 54 29 ZW 997,8 7 - 0,6
20.10.2017 00:00:00 13,0 10,6 - - 29 16 52 28 ZW 997,9 14 0 0,2
19.10.2017 23:00:00 13,1 10,8 - - 18 10 - - ZZW 998,0 10 0 0,0
19.10.2017 22:00:00 13,6 11,8 - - 15 8 50 27 ZZW 998,0 10 0 0,2
19.10.2017 21:00:00 14,3 13,6 - - 39 21 57 31 Z 997,3 4,0 0 1,4
19.10.2017 20:00:00 14,1 12,6 - - 37 20 55 30 Z 998,3 9 0 2,8
19.10.2017 19:00:00 14,7 13,3 - - 31 17 46 25 Z 999,1 6 0 3,6
19.10.2017 18:00:00 15,2 13,3 - - 26 14 - - Z 999,9 6 0 0,4
19.10.2017 17:00:00 15,6 13,4 - - 21 11 - - Z 1000,3 10 0 0,0
19.10.2017 16:00:00 15,7 13,6 - - 15 8 - - Z 1000,8 10 0 0,0
19.10.2017 15:00:00 15,4 14,0 - - 11 6 - - Z 1001,2 10 0 0,2
19.10.2017 14:00:00 14,8 13,7 - - 18 10 - - ZW 1001,5 6 0 0,2
19.10.2017 13:00:00 16,6 15,3 - - 16 9 - - Z 1001,7 5 0 0,0
19.10.2017 12:00:00 17,1 15,9 - - 16 9 - - ZO 1002,4 6 0 0,0
19.10.2017 11:00:00 16,0 15,9 - - 13 7 - - ZO 1003,2 3,0 0 0,0
19.10.2017 10:00:00 15,1 15,1 13,7 14,0 9 5 - - O 1003,7 2,5 0 0,0
19.10.2017 09:00:00 13,9 13,9 - - 8 4 - - NO 1004,4 0,5 0 0,4
19.10.2017 08:00:00 13,1 13,1 - - 5 3 - - ONO 1005,0 2,3 0 0,2
19.10.2017 07:00:00 12,7 12,7 - - 2 1 - - NNO 1005,6 1,0 0 0,0
19.10.2017 06:00:00 12,4 12,4 - - 5 3 - - N 1006,3 0,6 0 0,0
19.10.2017 05:00:00 12,4 12,3 - - 5 3 - - N 1006,7 0,2 0 0,0
19.10.2017 04:00:00 12,4 12,3 - - 4 2 - - NNW 1007,7 0,1 0 0,0
19.10.2017 03:00:00 12,3 12,2 - - 0 0 - - N 1008,0 0,1 0 0,0
19.10.2017 02:00:00 12,7 12,7 - - 5 3 - - O 1008,7 0,2 0 0,0
19.10.2017 01:00:00 12,8 12,7 - - 2 1 - - N 1009,2 0,4 - 0,0
19.10.2017 00:00:00 12,9 12,8 - - 5 3 - - WNW 1009,7 0,9 0 0,0
18.10.2017 23:00:00 13,1 12,9 - - 4 2 - - W 1009,8 0,3 0 0,0
18.10.2017 22:00:00 13,4 13,3 - - 5 3 - - NW 1009,5 0,3 0 0,0
18.10.2017 21:00:00 13,8 13,6 - - 8 4 - - W 1009,9 0,1 0 0,0
18.10.2017 20:00:00 13,7 13,5 - - 5 3 - - N 1010,0 0,2 0 0,0
18.10.2017 19:00:00 14,3 14,0 - - 4 2 - - O 1009,7 1,4 0 0,0
18.10.2017 18:00:00 14,7 14,3 - - 8 4 - - N 1009,3 1,4 0 0,0
18.10.2017 17:00:00 15,1 14,6 - - 0 0 - - N 1009,5 2,5 0 0,0
18.10.2017 16:00:00 14,8 14,2 - - 2 1 - - NO 1009,4 2,5 0 0,0
18.10.2017 15:00:00 14,3 13,5 - - 4 2 - - NNO 1009,6 4,0 0 0,0
18.10.2017 14:00:00 13,8 13,2 - - 5 3 - - ONO 1009,8 4,0 0 0,0
18.10.2017 13:00:00 13,2 12,6 - - 8 4 - - NO 1010,4 4,1 0 0,0
18.10.2017 12:00:00 12,6 12,0 - - 8 4 - - NO 1010,8 5 0 0,0
18.10.2017 11:00:00 12,0 11,3 - - 9 5 - - NO 1010,9 7 0 0,0
18.10.2017 10:00:00 11,6 10,9 13,7 14,2 8 4 - - NO 1011,0 10 0 0,0
18.10.2017 09:00:00 11,1 10,1 - - 8 4 - - NNO 1011,2 10 0 0,0
18.10.2017 08:00:00 10,7 9,8 - - 9 5 - - N 1011,1 10 0 0,0
18.10.2017 07:00:00 10,3 9,5 - - 9 5 - - N 1011,0 10 0 0,0
18.10.2017 06:00:00 10,1 9,2 - - 9 5 - - NO 1011,3 19 0 0,0
18.10.2017 05:00:00 9,8 8,9 - - 8 4 - - NO 1012,0 21 0 0,0
18.10.2017 04:00:00 9,6 8,6 - - 13 7 - - NNO 1012,6 25 0 0,0
18.10.2017 03:00:00 9,7 8,9 - - 13 7 - - NNO 1013,2 22 0 0,2
18.10.2017 02:00:00 9,7 9,1 - - 13 7 - - NNO 1013,9 20 0 0,4
18.10.2017 01:00:00 9,9 9,2 - - 16 9 - - NNO 1014,4 19 - 2,4
18.10.2017 00:00:00 9,9 8,7 - - 13 7 - - N 1015,3 14 0 0,0
17.10.2017 23:00:00 9,7 9,0 - - 13 7 - - N 1015,7 10 0 0,6
17.10.2017 22:00:00 9,9 9,1 - - 9 5 - - N 1016,0 10 0 0,0
17.10.2017 21:00:00 10,1 9,3 - - 8 4 - - O 1016,5 10 0 0,4
17.10.2017 20:00:00 10,3 9,6 - - 8 4 - - - 1016,5 7 0 0,8
17.10.2017 19:00:00 10,5 9,4 - - 9 5 - - NNO 1016,7 10 0 0,6
17.10.2017 18:00:00 11,4 9,4 - - 2 1 - - - 1017,4 10 0 0,2
17.10.2017 17:00:00 11,7 9,1 - - 4 2 - - Z 1017,9 10 0 0,8
17.10.2017 16:00:00 12,4 10,5 - - 4 2 - - - 1018,5 8 0 0,8
17.10.2017 15:00:00 12,7 10,5 - - 5 3 - - W 1019,2 7 0 0,6
17.10.2017 14:00:00 13,3 10,6 - - 2 1 - - OZO 1019,6 10 0 0,0
17.10.2017 13:00:00 13,1 10,6 - - 2 1 - - - 1020,6 10 0 0,0
17.10.2017 12:00:00 12,9 9,4 - - 4 2 - - - 1020,9 10 0 0,0
17.10.2017 11:00:00 12,4 9,5 - - 2 1 - - - 1020,8 10 0 0,0
17.10.2017 10:00:00 10,2 9,7 14,4 14,2 2 1 - - - 1020,8 10 0 0,0
17.10.2017 09:00:00 7,9 7,2 - - 4 2 - - - 1020,7 10 0 0,0
17.10.2017 08:00:00 6,4 5,5 - - 2 1 - - - 1020,2 10 0 0,0
17.10.2017 07:00:00 8,6 7,1 - - 4 2 - - - 1020,0 10 0 0,0
17.10.2017 06:00:00 9,0 6,5 - - 5 3 - - WZW 1019,6 16 0 0,0
17.10.2017 05:00:00 10,8 7,7 - - 9 5 - - WZW 1019,5 18 0 0,0
17.10.2017 04:00:00 11,3 7,5 - - 13 7 - - WZW 1019,8 18 0 0,0
17.10.2017 03:00:00 13,1 8,3 - - 18 10 - - WZW 1019,9 18 0 0,0
17.10.2017 02:00:00 13,0 8,3 - - 15 8 - - WZW 1019,8 17 0 0,0
17.10.2017 01:00:00 13,6 8,6 - - 21 11 - - WZW 1019,9 17 - 0,0
17.10.2017 00:00:00 14,0 9,0 - - 18 10 - - WZW 1019,8 16 0 0,0
16.10.2017 23:00:00 14,2 8,6 - - 26 14 - - WZW 1019,4 10 0 0,0
16.10.2017 22:00:00 14,2 8,3 - - 31 17 52 28 WZW 1018,9 10 0 0,0
16.10.2017 21:00:00 14,7 9,2 - - 29 16 63 34 WZW 1018,2 10 0 0,0
16.10.2017 20:00:00 15,0 9,7 - - 28 15 52 28 WZW 1017,8 10 0 0,0
16.10.2017 19:00:00 15,4 10,0 - - 26 14 54 29 ZW 1017,2 10 0 -
16.10.2017 18:00:00 15,5 9,9 - - 29 16 61 33 ZW 1016,3 10 18 0,0
16.10.2017 17:00:00 16,2 10,9 - - 34 18 57 31 ZW 1016,1 10 24 0,0
16.10.2017 16:00:00 17,1 11,4 - - 35 19 55 30 ZW 1016,0 10 18 0,0
16.10.2017 15:00:00 17,4 12,3 - - 31 17 48 26 ZW 1015,5 10 6 0,0
16.10.2017 14:00:00 16,9 12,6 - - 26 14 48 26 ZW 1015,2 10 0 0,0
16.10.2017 13:00:00 17,9 14,3 - - 26 14 - - ZZW 1014,9 10 0 0,0
16.10.2017 12:00:00 17,8 15,6 - - 21 11 - - Z 1014,7 10 0 0,0
16.10.2017 11:00:00 18,6 15,6 - - 18 10 - - Z 1014,3 10 0 0,0
16.10.2017 10:00:00 18,2 15,4 14,7 14,0 11 6 - - Z 1014,2 10 0 0,0
16.10.2017 09:00:00 18,5 15,4 - - 22 12 - - ZO 1013,6 10 0 0,0
16.10.2017 08:00:00 18,1 15,6 - - 15 8 - - ZO 1012,7 10 0 0,0
16.10.2017 07:00:00 17,1 16,0 - - 11 6 - - ZO 1013,6 10 0 0,0
16.10.2017 06:00:00 15,4 14,9 - - 8 4 - - O 1014,7 10 0 0,0
16.10.2017 05:00:00 15,7 15,2 - - 2 1 - - ZO 1015,3 8 0 0,0
16.10.2017 04:00:00 16,5 15,5 - - 5 3 - - ZO 1015,5 10 0 0,0
16.10.2017 03:00:00 16,8 15,4 - - 9 5 - - ZZO 1015,6 9 0 0,0
16.10.2017 02:00:00 16,6 15,5 - - 4 2 - - O 1015,9 13 0 0,0
16.10.2017 01:00:00 17,3 15,6 - - 9 5 - - ZW 1016,2 12 - 0,0
16.10.2017 00:00:00 17,5 16,0 - - 15 8 - - ZZW 1016,2 11 0 0,0
15.10.2017 23:00:00 17,7 16,5 - - 21 11 - - ZZW 1016,0 9 0 0,0
15.10.2017 22:00:00 15,8 15,1 - - 8 4 - - ZZO 1016,2 6 0 0,0
15.10.2017 21:00:00 15,8 15,0 - - 9 5 - - OZO 1016,2 5 0 0,0
15.10.2017 20:00:00 15,4 14,5 - - 11 6 - - ZO 1016,7 6 0 0,0
15.10.2017 19:00:00 15,5 14,5 - - 11 6 - - ZZO 1016,7 6 0 0,0
15.10.2017 18:00:00 16,1 14,4 - - 11 6 - - Z 1016,8 6 0 0,0
15.10.2017 17:00:00 16,9 13,8 - - 11 6 - - ZZO 1016,7 10 0 0,0
15.10.2017 16:00:00 16,9 13,5 - - 13 7 - - Z 1017,4 10 0 0,0
15.10.2017 15:00:00 17,3 13,7 - - 16 9 - - Z 1017,7 10 18 0,0
15.10.2017 14:00:00 17,9 13,5 - - 16 9 - - ZZW 1017,8 10 18 0,0
15.10.2017 13:00:00 17,2 13,4 - - 13 7 - - ZW 1017,9 10 0 0,0
15.10.2017 12:00:00 16,6 13,0 - - 15 8 - - ZW 1018,3 10 0 0,0
15.10.2017 11:00:00 16,2 13,7 - - 11 6 - - ZW 1018,3 9 0 0,0
15.10.2017 10:00:00 16,3 14,0 14,5 14,0 15 8 - - ZW 1018,4 9 0 0,0
15.10.2017 09:00:00 16,1 14,6 - - 13 7 - - ZZW 1018,2 7 0 0,0
15.10.2017 08:00:00 15,8 14,4 - - 11 6 - - ZW 1018,0 7 0 0,0
15.10.2017 07:00:00 15,9 14,7 - - 18 10 - - ZW 1017,8 7 0 0,0
15.10.2017 06:00:00 16,0 14,9 - - 13 7 - - Z 1017,7 13 0 0,0
15.10.2017 05:00:00 15,2 14,8 - - 13 7 - - ZZO 1017,9 7 0 0,0
15.10.2017 04:00:00 15,0 14,8 - - 9 5 - - ZZO 1018,6 1,9 0 0,0
15.10.2017 03:00:00 15,2 15,0 - - 13 7 - - ZZO 1019,5 3,8 0 0,0
15.10.2017 02:00:00 15,1 14,9 - - 13 7 - - ZO 1020,3 1,1 0 0,0
15.10.2017 01:00:00 14,9 14,6 - - 11 6 - - ZZO 1020,8 3,5 - 0,0
15.10.2017 00:00:00 14,6 14,2 - - 11 6 - - ZO 1021,3 6 0 0,0
14.10.2017 23:00:00 14,1 13,7 - - 16 9 - - ZO 1021,8 8 0 0,0
14.10.2017 22:00:00 14,1 13,9 - - 16 9 - - ZZO 1022,1 7 0 0,0
14.10.2017 21:00:00 14,4 14,1 - - 21 11 - - ZZO 1022,4 0,4 0 0,0
14.10.2017 20:00:00 15,1 14,7 - - 11 6 - - ZO 1022,8 7 0 0,0
14.10.2017 19:00:00 15,3 14,5 - - 9 5 - - ZO 1023,3 7 0 0,0
14.10.2017 18:00:00 16,7 13,9 - - 4 2 - - Z 1023,7 10 48 0,0
14.10.2017 17:00:00 17,1 14,7 - - 9 5 - - Z 1023,9 10 18 0,0
14.10.2017 16:00:00 18,3 14,8 - - 8 4 - - ZZW 1024,1 10 0 0,0
14.10.2017 15:00:00 18,1 15,1 - - 8 4 - - WZW 1024,5 10 0 0,0
14.10.2017 14:00:00 17,8 15,4 - - 9 5 - - WZW 1024,6 10 0 0,0
14.10.2017 13:00:00 17,3 15,2 - - 9 5 - - ZW 1024,9 10 0 0,0
14.10.2017 12:00:00 17,4 15,6 - - 11 6 - - ZW 1025,2 10 0 0,0
14.10.2017 11:00:00 17,1 15,3 - - 11 6 - - ZW 1025,3 10 0 0,0
14.10.2017 10:00:00 16,7 15,3 14,2 14,0 11 6 - - ZW 1025,1 10 0 0,0
14.10.2017 09:00:00 16,2 15,0 - - 9 5 - - WZW 1024,8 10 0 0,0
14.10.2017 08:00:00 15,8 14,6 - - 9 5 - - WZW 1024,4 10 0 0,0
14.10.2017 07:00:00 15,9 14,4 - - 11 6 - - WZW 1024,1 10 0 0,0

tt = temperatuur
td = dauwpunt
tt -20cm = temperatuur -20cm
tt -100cm = temperatuur -100cm
ff = windsnelheid
fx = windstoten
dd = windrichting
ppp = luchtdruk
vv = zicht
sd = Zonneschijnduur
rr = neerslag

Weerstations in de omgeving